Regional Weather Roundup
Issued by NWS State College, PA

Home | Current Version | Previous Version | Graphics & Text | Print | Product List | Glossary On
Versions: 1 2 3 4 5 6 7 8 9 10 11 12 13 14 15 16 17 18 19 20 21 22 23 24 25 26 27 28 29 30 31 32 33 34 35 36 37 38 39 40 41 42 43 44 45 46 47 48 49 50
482
ASUS41 KCTP 020210
RWRCTP

REGIONAL WEATHER ROUNDUP
NATIONAL WEATHER SERVICE STATE COLLEGE PA
1000 PM EDT SUN MAY 01 2016

Note: "fair" indicates few or no clouds below 12,000 feet with no
significant weather and/or obstructions to visibility.

* = STATION THAT DOES NOT REPORT PRECIPITATION /E.G. RAIN...SNOW...ETC/
    THUNDER OR FOG.

PAZ002>004-007>009-013>016-020>023-029>032-020300-
WESTERN PENNSYLVANIA

CITY           SKY/WX    TMP DP  RH WIND       PRES   REMARKS
ERIE           CLOUDY    45  44  97 NE12      30.01S FOG
MEADVILLE        N/A    N/A N/A N/A MISG      29.98R
FRANKLIN*      CLOUDY    54  48  82 N5        29.99S
NEW CASTLE     CLOUDY    57  53  86 N6        29.97R
BEAVER COUNTY  NOT AVBL
BUTLER*        CLOUDY    61  55  82 NW3       29.98R
PITTSBURGH INT CLOUDY    59  55  87 S6        29.95R
PITTSBURGH     CLOUDY    60  55  83 S7        29.94R
INDIANA*       CLEAR     61  59  94 SW5       29.98R
LATROBE        PTCLDY    59  59 100 CALM      29.96R FOG
WASHINGTON CO* CLOUDY    57  54  88 CALM      29.95F
$$

PAZ004>006-010>012-017>019-024>028-033>037-041-042-045-046-049>053-020300-
CENTRAL PENNSYLVANIA

CITY           SKY/WX    TMP DP  RH WIND       PRES   REMARKS
BRADFORD       CLOUDY    55  51  86 NW6       29.98S
DUBOIS         CLOUDY    55  54  96 E5        29.95S FOG
CLEARFIELD     CLOUDY    53  51  93 E5        29.97S FOG
JOHNSTOWN      PTCLDY    55  51  86 S5        29.98R
ALTOONA        CLOUDY    54  52  93 SE3       30.00R
STATE COLLEGE  CLOUDY    51  50  97 CALM      30.00R
WILLIAMSPORT   CLOUDY    49  47  93 VRB5      30.03S FOG
SELINSGROVE    CLOUDY    50  48  93 CALM      30.04S
FT INDIANTOWN  NOT AVBL
CAPITAL CITY   CLOUDY    53  50  89 E6        30.04F FOG
HARRISBURG     DRIZZLE   52  50  93 E6        30.03F FOG
YORK           CLOUDY    53  51  93 CALM      30.03F
$$

PAZ038>040-043-044-047-048-054-055-060>062-067>071-020300-
EASTERN PENNSYLVANIA

CITY           SKY/WX    TMP DP  RH WIND       PRES   REMARKS
SCRANTON       CLOUDY    49  44  83 CALM      30.04S
MOUNT POCONO   FOG       42  41  96 E5        30.04S VSB 1/4
ALLENTOWN      CLOUDY    49  46  90 E7        30.07R FOG
QUAKERTOWN*    CLOUDY    48  48 100 E3        30.08R
READING        CLOUDY    51  48  89 E6        30.05S FOG
LANCASTER      CLOUDY    50  50 100 E5        30.05F FOG
COATESVILLE    FOG       50  50 100 E6        30.07S VSB 3/4
POTTSTOWN      CLOUDY    49  48  97 E5        30.07S FOG
BLUE BELL      CLOUDY    46  46 100 E3        30.06S
DOYLESTOWN     CLOUDY    46  46 100 CALM      30.06F
WILLOW GROVE   NOT AVBL
NORTH PHILA    CLOUDY    50  32  50 E7        30.09F
PHILADELPHIA   CLOUDY    52  48  86 E6        30.08R
$$




USA.gov is the U.S. government's official web portal to all federal, state and local government web resources and services.